Theta_e
300 300 300 300 300 300 300 300 301 302 302 302 302 302 302 302 302 305 313 314 312 311 310 308 311 314 316 320 322 324 329 332 330 329 329 328 327 326 325 325 326 329 333 339 340
300 300 300 300 300 301 301 302 303 303 302 303 303 303 303 303 303 313 311 310 308 308 305 312 311 313 315 318 321 323 328 329 329 329 329 328 328 327 326 326 326 328 333 335 338
300 300 300 301 301 301 302 303 303 302 302 303 304 303 303 303 317 314 313 307 305 305 307 312 314 314 315 317 320 323 327 328 328 329 329 329 328 327 326 327 326 329 331 335 335
300 300 300 301 301 301 302 302 303 303 302 302 303 303 303 309 317 315 309 308 311 311 313 312 313 314 316 317 317 321 324 326 327 328 329 330 330 330 328 326 326 327 330 334 335
300 300 300 301 302 301 302 302 303 303 303 303 303 305 311 319 313 311 311 312 313 314 313 312 312 315 317 317 318 319 320 322 324 326 328 328 329 330 330 327 326 326 327 331 335
300 300 300 301 302 302 302 302 302 303 304 303 303 306 316 319 311 311 312 313 313 313 313 314 313 312 313 316 319 318 319 320 321 323 325 327 328 328 329 329 329 328 327 328 334
300 301 300 300 302 302 302 303 304 303 304 304 304 306 317 314 311 311 312 312 312 313 312 313 313 313 313 314 316 317 319 320 321 321 323 324 326 328 329 329 329 330 329 328 328
298 299 301 301 301 302 303 304 304 304 304 306 306 308 319 311 310 311 310 311 312 311 312 312 312 313 312 313 314 314 317 319 320 320 321 322 324 326 325 328 329 329 330 330 329
301 299 300 301 301 302 304 304 308 308 305 305 316 315 316 311 311 309 310 311 310 310 311 311 312 312 313 314 314 314 313 315 317 320 320 321 322 325 325 326 328 329 329 329 330
307 304 299 301 301 302 303 306 312 311 313 316 315 314 315 312 310 309 310 310 310 311 312 314 313 315 316 315 313 314 314 314 314 316 318 321 322 323 323 323 326 328 330 329 329
307 308 300 301 302 302 310 314 314 317 317 314 312 312 311 311 310 310 311 310 311 312 313 313 313 314 316 317 317 316 315 316 316 316 316 318 321 323 324 324 324 325 327 329 330
307 308 301 303 303 302 311 314 311 311 312 312 312 311 310 310 310 311 310 310 311 312 312 312 313 314 314 315 315 315 315 314 314 315 316 317 317 320 323 324 324 325 325 326 328
307 308 302 303 305 312 312 312 311 312 313 314 312 311 311 310 311 311 311 310 311 311 312 312 312 313 312 312 313 314 314 314 314 314 314 315 317 319 320 323 323 323 325 325 326
306 307 304 303 313 311 314 312 311 312 315 314 312 312 310 310 312 311 310 310 310 311 311 311 311 312 312 312 312 313 313 313 313 313 313 314 316 320 320 322 324 323 324 326 326
303 307 305 304 304 314 311 312 311 313 325 313 312 311 311 311 312 313 311 310 311 311 311 311 312 313 313 312 313 313 313 313 313 314 314 314 314 315 318 321 324 325 323 325 324
302 307 307 314 314 313 311 312 314 320 321 313 312 312 312 313 313 312 311 311 311 312 312 312 312 313 313 314 314 314 313 313 313 315 315 314 314 315 316 319 321 325 324 324 324
302 306 307 307 313 311 311 313 318 319 314 314 313 313 312 313 313 313 312 312 312 312 311 312 311 313 313 314 314 313 315 318 316 316 317 314 314 315 317 318 319 322 324 324 324
304 306 310 311 312 311 311 316 319 317 314 313 313 313 314 314 313 312 313 312 313 312 311 311 311 311 313 313 312 313 312 313 314 315 314 313 315 317 318 318 317 320 322 322 322
304 314 314 315 312 311 312 318 318 314 313 312 313 313 313 313 312 312 312 312 312 312 313 313 312 312 311 312 312 313 313 314 316 316 316 315 313 315 317 318 320 321 321 322 322
310 314 315 313 311 310 314 317 315 313 311 312 313 313 313 312 312 312 312 312 312 312 312 313 313 311 312 311 313 315 315 317 317 317 317 313 312 313 317 318 319 321 322 321 322
312 315 314 312 310 313 319 315 313 310 309 312 313 312 312 312 312 312 312 312 313 313 312 312 313 313 312 312 313 313 315 314 315 318 318 315 312 317 318 321 320 323 322 322 323
312 315 313 309 313 315 314 311 309 310 311 312 312 312 312 312 312 312 312 313 312 312 312 312 313 313 312 313 313 314 313 316 319 317 316 315 317 317 317 319 318 319 322 323 322
312 312 312 310 317 314 312 312 312 311 311 312 312 312 311 312 313 312 313 312 312 312 312 313 312 313 312 312 313 312 313 313 314 317 318 317 316 315 316 316 315 316 321 321 320
312 315 313 310 312 313 313 313 313 311 311 311 311 311 312 312 312 312 313 312 312 311 312 312 313 313 315 313 313 314 314 315 315 317 315 313 313 314 315 315 314 315 317 320 318
311 314 312 313 311 311 312 313 313 312 311 311 311 312 312 312 311 312 312 312 311 312 313 313 315 314 313 313 312 312 313 313 315 315 312 313 313 315 315 315 314 315 316 317 317
309 308 307 308 309 311 313 313 314 312 312 312 311 311 311 311 311 312 312 312 313 313 314 314 316 315 315 314 313 313 313 313 313 312 311 311 312 314 315 314 315 314 315 316 317
305 306 305 306 310 310 312 310 311 311 310 309 310 311 311 311 311 311 311 311 313 314 315 315 314 315 314 313 314 315 314 314 316 315 314 316 316 316 316 316 316 315 316 316 317
Wind_Speed
13 12 12 12 12 11 11 9 9 10 11 12 12 11 11 12 11 9 16 12 13 14 14 13 11 12 15 21 23 24 16 18 23 21 18 21 16 20 23 23 24 16 14 7 10
13 13 13 12 11 10 9 9 9 11 12 12 11 11 12 13 14 10 3 8 13 18 13 9 13 15 21 20 21 21 17 27 23 21 17 21 18 17 18 23 22 20 12 3 6
15 14 13 13 12 10 9 9 10 11 12 11 10 9 10 10 10 8 2 11 10 8 7 11 13 17 22 24 26 27 26 24 28 30 26 27 25 18 20 21 24 21 24 15 11
16 15 14 14 12 11 11 11 10 11 12 12 13 12 8 2 1 4 11 7 6 7 6 9 13 18 19 21 28 26 34 33 35 34 33 27 33 22 23 27 31 27 26 18 20
18 16 15 14 13 12 12 12 13 13 12 11 12 10 3 6 3 8 11 11 11 6 10 10 14 17 19 20 26 29 28 35 36 35 35 36 31 28 24 28 31 33 32 22 19
19 17 16 15 14 12 13 15 17 17 14 9 7 5 6 13 3 5 7 7 7 7 9 9 10 15 22 23 22 28 33 31 35 35 35 30 29 29 35 29 30 32 33 21 25
20 19 17 15 13 13 13 16 19 16 11 5 5 4 10 5 5 5 7 8 8 6 8 9 11 11 14 17 29 27 26 24 27 30 27 34 28 32 34 33 33 33 34 34 27
21 21 19 17 14 13 12 16 15 12 6 6 2 3 8 1 3 5 10 9 6 10 12 11 10 14 16 19 28 21 21 21 25 27 31 24 28 30 37 32 31 35 35 34 36
22 22 19 18 15 13 12 16 11 9 5 1 1 1 8 3 2 9 9 8 10 11 11 12 11 13 15 14 15 16 20 25 26 23 24 26 32 28 33 35 32 31 33 36 36
26 25 21 17 15 12 13 14 14 8 4 5 9 8 8 4 9 10 7 8 11 12 13 12 16 13 12 12 15 17 20 20 25 24 26 26 28 29 36 35 31 33 33 37 41
27 26 23 18 14 10 9 9 7 2 8 14 15 13 10 5 10 7 6 9 13 10 13 14 12 13 17 16 19 20 21 24 25 26 27 23 25 29 25 32 31 31 30 31 36
26 27 22 16 10 6 7 9 8 10 12 14 15 10 8 7 7 9 8 10 14 12 14 13 14 14 15 16 19 20 20 23 24 24 22 25 28 29 24 24 29 33 33 31 40
25 25 18 12 6 4 4 5 9 12 9 4 3 7 7 6 12 14 6 11 12 13 14 15 17 18 20 20 20 19 21 21 23 21 21 25 28 26 29 27 30 27 33 35 40
25 23 14 5 4 6 1 9 10 10 5 7 8 2 4 6 16 5 11 6 10 15 15 14 18 18 19 20 22 22 20 23 22 20 18 18 18 23 23 25 21 27 35 29 36
24 19 9 5 4 7 9 11 11 3 2 4 6 3 4 8 12 6 2 9 15 17 14 16 18 16 18 21 20 21 21 22 23 22 22 23 15 20 22 25 22 22 36 33 27
24 16 2 6 7 7 10 12 6 4 0 2 1 4 9 10 15 6 13 14 23 20 18 17 10 13 14 16 21 21 20 23 22 18 18 25 22 22 19 24 24 22 32 34 29
22 11 3 1 7 10 11 9 5 5 5 3 8 13 14 16 7 5 7 15 13 11 14 16 13 5 12 15 20 17 6 5 9 14 18 25 23 20 24 24 29 27 22 22 31
15 6 2 2 6 9 9 8 5 6 6 14 11 16 18 2 8 6 14 14 13 11 13 15 16 12 4 7 21 25 13 12 17 16 17 20 12 13 25 23 38 36 28 24 34
9 5 1 2 4 7 10 5 5 11 12 12 15 12 9 11 12 11 14 11 9 13 11 15 15 19 20 23 14 16 16 18 18 23 16 19 23 15 24 24 24 26 31 8 10
14 4 2 1 3 4 5 8 11 8 10 11 13 8 14 16 14 12 13 12 8 12 2 10 20 18 22 25 14 22 18 17 10 15 19 16 18 13 19 14 23 23 18 18 16
10 6 2 2 4 6 4 10 12 13 12 6 12 13 14 12 14 15 16 15 14 14 14 16 12 17 19 19 18 10 17 14 16 7 5 12 12 7 14 19 20 20 24 24 10
7 4 1 5 5 5 5 6 10 11 8 11 8 10 11 13 15 15 18 13 16 18 16 9 6 13 19 14 18 25 12 5 3 10 13 12 19 16 15 23 27 33 15 13 9
10 9 2 2 3 6 11 11 15 5 9 11 9 14 10 13 12 9 15 16 18 10 7 6 4 12 12 2 4 8 21 20 15 11 13 13 15 16 22 27 39 37 22 9 7
8 4 4 7 4 7 12 13 9 6 7 8 9 14 12 12 12 11 17 9 13 19 18 13 12 15 13 20 20 6 19 24 16 10 14 13 14 11 12 15 25 39 42 2 5
6 5 6 5 11 14 12 14 14 11 11 9 12 16 14 15 18 16 12 18 18 21 11 4 12 16 20 22 23 24 21 23 24 26 14 15 16 15 9 10 17 30 43 26 7
6 7 10 18 13 12 11 11 17 10 14 16 15 16 13 14 17 22 20 17 16 16 11 7 11 17 23 23 24 20 20 25 28 23 19 18 15 11 10 23 25 32 38 16 8
6 4 6 11 11 11 8 12 16 14 9 13 13 17 18 18 24 25 27 29 21 18 18 10 6 8 9 14 14 15 15 15 22 23 15 14 13 16 11 14 8 30 20 14 10
Wind_Direction
352 351 349 347 345 343 342 347 348 343 333 327 321 317 312 305 293 271 271 257 241 263 272 257 262 252 248 244 239 243 254 253 253 250 263 274 276 284 273 280 288 293 302 67 90
350 348 345 346 344 342 342 341 341 338 336 334 327 316 308 303 298 275 233 277 285 274 267 264 258 244 237 243 230 236 243 242 248 259 270 278 276 260 271 253 253 259 247 115 161
347 346 345 344 340 336 331 331 335 340 346 350 347 336 312 308 314 132 295 306 306 283 258 272 262 257 250 237 237 230 243 247 254 261 257 268 278 267 273 272 256 219 244 223 230
346 342 340 341 338 333 328 326 328 329 336 338 337 335 303 273 11 134 313 333 21 25 283 272 256 248 249 248 241 243 247 245 257 262 278 281 281 272 255 272 278 283 230 229 220
348 343 337 335 335 330 330 330 333 329 330 333 331 348 349 260 41 340 356 351 352 309 278 277 263 256 251 251 250 249 248 252 256 257 256 267 267 271 265 254 268 277 281 252 201
351 347 337 332 332 330 331 332 331 329 324 323 322 313 324 280 25 337 327 330 323 310 301 288 280 275 286 280 264 261 261 260 255 250 257 252 256 255 252 258 262 272 275 263 215
349 346 338 330 324 324 326 330 330 331 329 323 309 278 288 291 348 328 321 319 314 312 308 296 301 299 292 291 250 263 273 274 265 262 253 251 261 251 251 239 249 257 264 266 255
347 344 338 331 321 318 322 330 332 334 340 332 298 246 275 124 304 324 326 313 305 302 293 287 287 285 280 277 285 280 271 267 248 249 256 259 260 249 257 251 233 248 258 261 260
347 342 336 331 322 317 320 324 323 336 346 282 349 217 284 256 315 324 319 313 315 305 300 284 275 273 281 266 260 245 259 261 268 256 253 239 253 254 250 250 247 231 243 253 258
347 343 337 329 326 318 323 309 308 305 313 275 260 256 255 278 325 317 315 301 313 308 295 259 241 258 251 247 256 269 257 253 254 259 268 263 245 248 246 254 253 244 234 234 240
345 345 339 328 325 331 2 339 318 232 252 273 293 284 288 305 312 310 322 306 312 280 294 320 304 279 282 274 290 302 291 284 283 293 297 284 263 265 241 235 241 250 241 249 254
344 344 342 333 329 341 340 341 7 326 305 275 264 266 270 288 296 307 315 305 316 305 308 291 274 284 283 268 267 275 287 286 288 291 291 286 281 278 270 255 239 232 231 240 255
341 344 347 347 8 47 6 357 334 326 288 312 261 236 258 260 278 299 299 301 298 308 306 307 302 304 294 288 280 268 268 276 283 294 283 284 281 276 271 275 258 269 237 223 238
339 343 350 359 12 348 304 332 327 320 275 135 187 171 262 271 266 304 281 295 295 299 307 302 289 283 281 274 279 282 281 277 281 280 275 276 272 267 269 263 264 271 272 236 222
337 340 352 6 337 357 331 326 316 284 230 139 109 117 264 242 286 268 282 270 275 286 284 290 296 324 306 293 302 282 299 292 287 286 284 270 265 266 270 264 252 233 258 257 241
338 336 355 15 349 337 329 324 316 256 356 142 200 256 291 302 289 306 266 271 271 261 256 266 306 276 291 312 303 305 291 288 276 276 263 266 263 265 258 265 267 261 232 245 242
340 331 265 231 343 325 324 307 253 273 121 70 346 321 317 284 340 295 296 281 292 318 310 317 314 37 350 307 298 272 235 298 276 269 264 258 252 258 265 260 261 266 268 238 231
347 350 232 227 312 322 323 278 276 327 335 0 331 309 276 253 284 274 274 294 321 345 318 312 303 342 96 284 287 284 306 287 277 282 280 299 277 298 298 263 265 271 267 259 269
351 332 339 163 317 320 300 254 312 5 355 329 316 306 331 332 335 327 309 324 335 359 347 316 301 313 300 294 289 287 277 275 291 281 279 281 277 262 261 269 254 256 259 218 265
352 307 210 184 324 307 265 269 294 10 348 326 301 313 334 317 321 329 314 328 18 327 107 273 307 311 294 290 308 272 264 282 279 274 263 266 274 259 310 329 255 260 246 277 226
346 264 198 317 303 253 259 286 327 353 327 321 326 312 311 323 324 326 312 320 8 329 323 328 326 302 302 281 287 284 269 263 259 170 235 278 271 259 355 347 333 272 209 221 145
339 309 63 336 258 284 257 354 305 298 308 270 284 305 306 321 314 306 299 322 330 337 324 349 288 293 295 324 5 327 279 336 233 262 274 288 282 23 344 343 337 328 241 133 129
325 299 170 53 322 331 325 312 304 294 320 320 299 297 309 288 300 302 300 306 329 331 339 339 293 308 297 228 38 304 316 299 288 288 232 263 285 4 12 352 335 331 320 221 114
317 336 344 304 296 302 332 315 314 311 267 282 293 289 294 304 286 288 285 319 316 317 313 289 257 258 274 282 289 269 272 277 274 229 269 288 310 318 35 335 326 311 323 302 75
358 331 20 306 332 319 300 300 300 307 313 314 306 301 300 314 309 308 289 305 305 308 295 279 273 276 276 284 289 295 265 266 243 255 271 282 286 272 200 194 283 282 278 293 286
7 346 334 299 311 295 287 303 308 325 339 309 295 292 328 292 286 295 301 297 293 297 306 311 282 285 286 289 291 295 303 297 288 274 275 272 268 323 225 185 211 257 261 286 301
10 345 337 291 287 310 321 323 309 316 313 294 319 317 302 297 310 306 293 285 274 269 278 288 290 318 288 283 286 284 309 307 321 310 334 343 335 316 323 317 306 312 318 310 299